sat.trackr.live / text

‹ back to catalog

QIANFAN-119

NORAD 68646 · 2026-075L

PAYLOAD ACTIVE UNKNOWN

§ Identity

Operator
Country
PRC
Launch date
2026-04-07
Launch site
WSC
Launch vehicle
Mass (kg)
RCS (m²)

External: N2YO · Heavens-Above · Gunter

§ Orbital elements

Epoch: 2026-09-19T21:26:20.469408Z

Period
106.59 min
Inclination
88.9866°
Eccentricity
0.0001976
Mean motion
13.51020465 rev/d
Perigee alt
1,067.0 km
Apogee alt
1,070.0 km
Semi-major
7,446.6 km
B*
4.8032e-5
RAAN
311.3396°
Arg perigee
87.1084°
Mean anomaly
273.0294°
Rev number
2,259

§ Raw data

QIANFAN-1191 68646U 26075L   26262.89329247  .00000043  00000+0  48032-4 0  99992 68646  88.9866 311.3396 0001976  87.1084 273.0294 13.51020465 22596

JSON: /api/v1/satellites/68646 · /tle

For live sub-satellite position, see the globe view (requires WebGL).

§ Visibility from observer

Set your observer location to see the next 7 days of passes ≥ 10°. The values pass through the URL so the page stays shareable.

No JS? Fill the form by hand. The geolocation button needs JavaScript.